RH
14 14 13 13 13 12 12 11 11 11 11 10 10 10 10 10 10 9 9 9 9 8 8 8 8 9 9 10 11 11 12 11 11 10 10 9 8 8 8 8 8 8 9 9 9 8 8 8 8 7 7 7 8 8 8 8 8 13 16 18 21 17 10 10 16 18 18 16 14 13 13 14 14 20 19 17 18 17 27 36 33 35 43 47 48 48 46 43
13 13 12 12 11 11 11 11 11 11 11 10 10 10 10 10 9 9 9 9 9 8 8 8 8 8 8 9 10 11 11 11 11 10 10 9 9 8 9 9 8 9 9 9 9 8 8 8 8 7 7 7 8 9 10 10 10 11 13 16 15 12 7 10 16 18 18 17 16 14 14 12 14 21 20 21 26 19 26 45 48 42 45 48 47 48 49 48
12 11 11 11 11 10 10 10 10 10 10 10 10 10 9 9 9 9 9 9 9 9 8 8 8 8 8 8 9 9 10 11 12 10 9 9 9 9 8 9 9 9 9 9 9 8 8 7 8 7 7 7 8 10 12 13 15 12 14 15 10 7 7 10 16 18 17 16 16 13 13 12 12 18 20 25 31 26 22 33 45 42 37 40 41 43 44 46
10 10 10 10 10 9 9 9 9 9 9 9 9 9 9 9 9 9 9 9 9 9 9 8 8 8 8 8 8 8 9 10 11 12 12 13 12 11 9 9 9 9 9 8 8 8 7 7 7 7 7 8 8 11 12 13 17 17 16 13 7 7 8 9 12 14 15 15 16 15 13 13 11 13 18 22 26 29 28 27 35 36 32 37 44 46 45 45
9 9 8 9 9 9 9 9 9 9 8 8 8 8 8 8 8 8 8 8 8 8 8 8 8 8 8 8 7 8 7 9 15 19 20 19 17 16 14 12 10 9 8 8 8 8 7 7 7 7 7 7 9 10 11 12 16 18 17 12 8 10 10 9 12 14 16 17 17 15 13 13 11 12 13 16 19 21 23 23 25 27 28 33 40 46 49 49
8 8 8 8 8 8 8 8 8 8 8 8 8 8 8 7 7 7 7 7 8 8 8 8 8 8 7 8 7 7 6 9 17 19 20 18 15 16 17 16 15 11 8 7 7 7 7 7 7 7 7 7 9 9 10 14 19 18 16 14 11 11 13 12 14 18 18 17 16 14 14 13 12 12 11 12 14 14 16 18 18 21 25 31 37 41 47 49
8 8 8 8 8 8 8 8 7 7 7 7 7 7 7 7 6 6 7 7 7 7 8 8 8 7 7 8 7 7 6 7 10 12 12 13 12 13 14 14 15 14 10 8 7 7 7 7 6 7 7 7 9 10 11 18 24 24 17 13 13 14 17 16 15 17 17 17 16 15 14 13 12 12 12 12 12 12 15 19 22 23 26 34 42 44 46 50
9 8 8 8 8 8 7 8 7 7 7 7 7 7 6 6 5 6 6 6 6 6 7 7 7 7 7 7 8 7 6 6 6 8 9 9 10 10 10 10 10 12 12 10 7 7 7 6 7 8 7 7 13 16 18 22 26 27 19 13 14 14 16 16 15 15 15 17 17 16 14 13 13 12 12 12 12 13 14 20 26 28 31 35 38 45 50 50
10 10 10 9 9 8 8 8 7 7 7 7 7 7 6 6 5 5 5 5 5 5 6 6 6 6 6 6 7 7 7 7 7 8 9 8 8 8 10 10 9 9 10 12 9 7 7 7 8 12 14 16 21 22 24 28 26 25 21 17 17 16 15 15 14 14 15 16 16 16 15 13 13 13 13 13 13 12 13 22 33 33 32 33 38 48 54 54
12 12 12 11 11 10 9 9 8 8 8 7 7 7 6 6 6 5 4 5 4 5 5 5 6 5 6 6 6 6 7 10 11 11 12 11 11 12 12 11 9 7 8 12 11 8 7 8 13 22 28 29 29 26 28 32 26 23 22 20 19 17 16 15 13 14 14 14 15 15 13 13 13 12 14 15 14 13 13 22 33 34 32 36 44 50 52 54
12 11 11 12 12 12 11 11 10 10 9 8 8 7 6 6 6 6 5 5 4 4 4 4 5 5 5 6 6 5 6 9 11 11 12 12 14 16 16 14 10 8 8 11 13 11 8 13 22 30 32 31 32 30 29 30 26 23 22 20 18 16 16 14 13 12 13 13 14 15 14 14 13 13 12 13 15 14 15 21 27 30 32 38 41 42 45 49
9 9 9 10 10 11 11 11 11 11 11 10 10 8 7 6 6 6 5 5 4 4 4 4 4 4 5 5 6 5 5 7 7 8 8 9 13 15 17 16 12 9 7 11 16 12 10 21 31 31 28 26 27 26 25 25 25 23 22 20 17 15 14 13 13 12 12 13 14 14 15 14 14 14 12 11 13 13 16 24 29 28 30 33 30 31 36 42
8 8 8 8 8 8 8 9 9 10 11 11 11 10 9 8 7 6 6 6 5 5 4 4 4 4 4 5 5 5 5 6 6 7 6 8 11 14 17 15 13 11 7 11 17 14 16 27 30 28 26 24 22 21 20 20 21 21 20 20 17 15 14 12 13 12 12 13 14 14 15 15 14 13 12 11 13 12 16 26 31 30 29 29 26 24 26 32
8 7 7 7 7 7 7 7 7 8 8 9 10 11 11 10 9 7 6 6 6 6 5 5 4 4 4 4 5 5 5 5 5 6 5 6 8 13 16 12 11 11 8 13 19 19 23 28 26 25 25 24 22 22 20 18 18 18 18 18 16 15 13 12 12 12 13 14 15 15 14 14 14 12 11 11 12 12 13 19 24 25 26 29 26 21 21 26
6 6 6 6 6 6 6 6 6 6 6 7 7 8 10 10 10 9 7 6 6 6 6 6 6 5 4 4 5 7 5 5 5 5 6 6 5 9 12 10 10 10 9 15 20 24 28 27 26 27 26 25 25 23 21 19 17 18 19 18 16 15 13 11 12 12 13 14 15 15 14 14 13 12 11 10 12 12 12 13 16 16 20 29 27 20 20 24
6 7 7 7 7 6 7 6 6 6 6 6 6 6 7 8 9 10 9 8 6 6 6 6 7 7 7 7 11 13 12 13 11 8 8 8 8 10 12 13 11 10 11 16 23 29 31 30 30 31 30 28 25 23 22 20 18 17 20 19 16 16 15 12 11 11 13 14 16 15 14 13 13 12 11 11 11 12 13 12 12 12 16 28 29 20 21 24
7 8 8 8 8 7 8 7 7 8 7 7 6 6 6 6 7 8 9 9 8 7 6 7 7 7 8 8 10 13 17 23 26 24 19 15 14 11 13 17 15 15 13 17 28 32 32 33 34 33 32 29 23 23 23 21 19 17 18 20 18 18 19 16 11 10 11 13 14 15 14 13 12 12 11 11 11 10 12 11 11 12 14 25 29 22 22 23
8 9 9 9 8 8 8 8 8 8 8 8 7 7 6 5 5 6 7 8 9 9 7 7 7 8 18 22 21 22 26 31 35 37 33 28 24 15 18 26 27 30 25 20 27 31 33 34 34 34 32 28 23 22 22 20 18 16 18 19 19 20 20 18 14 11 11 12 14 14 14 13 12 12 11 11 11 10 11 10 10 11 12 21 26 24 23 21
9 9 9 9 9 9 8 8 8 8 8 8 8 8 7 6 6 5 7 7 8 10 9 11 10 10 21 27 31 35 33 33 35 38 38 36 31 20 25 39 44 48 43 32 27 27 31 33 33 31 25 23 23 23 22 19 19 19 19 19 19 21 20 19 18 16 15 14 14 14 13 13 12 12 12 11 11 11 10 10 11 11 13 21 26 26 23 20
10 10 10 10 10 10 10 9 9 10 9 9 9 8 8 7 6 6 8 8 8 9 9 12 11 9 14 20 33 40 33 30 35 41 42 40 37 27 29 46 54 55 51 43 34 26 28 30 28 22 17 19 23 23 22 21 21 21 19 19 19 21 21 21 20 19 18 17 16 16 14 12 11 11 11 11 11 11 10 11 11 14 18 23 28 27 20 20
12 13 13 13 13 13 13 12 12 13 12 13 12 10 9 8 7 7 9 9 8 9 9 10 11 10 11 15 30 42 38 32 32 41 46 43 40 33 31 44 54 54 51 47 39 30 29 29 21 16 17 19 20 20 21 21 21 22 20 18 18 20 21 20 20 20 20 21 19 19 18 15 11 10 10 10 11 11 10 9 11 16 21 27 29 23 17 24
15 16 15 15 15 15 15 15 15 15 16 16 15 13 11 9 8 7 9 10 9 9 9 8 10 9 10 8 15 33 40 35 30 34 44 45 40 36 32 39 48 50 49 48 42 35 34 29 19 19 20 20 20 20 21 21 21 21 20 18 19 21 22 20 20 21 21 22 21 21 22 18 12 10 10 9 10 11 10 9 10 12 18 29 30 19 18 32
15 14 14 14 13 14 13 13 13 14 15 16 16 15 12 11 10 8 9 10 8 9 9 9 9 8 10 8 7 19 26 26 30 32 39 44 40 38 35 35 44 48 48 47 44 38 33 24 18 20 23 23 22 19 20 22 21 22 20 20 21 21 22 21 20 20 20 21 22 21 20 17 14 11 9 9 10 10 9 9 11 11 16 26 26 19 23 34
11 10 10 9 9 10 9 9 8 9 11 13 15 15 14 14 12 8 10 12 8 7 8 8 10 8 9 10 7 11 13 17 29 34 38 43 41 41 37 36 43 47 47 46 42 38 28 18 19 24 27 26 23 20 21 22 22 22 22 21 22 22 22 22 21 21 20 20 21 19 17 15 14 11 9 9 9 9 9 10 12 15 22 28 26 25 30 37
7 6 6 5 6 5 5 5 5 6 7 10 13 14 15 14 13 14 16 16 9 4 6 6 8 9 9 12 10 9 14 19 26 32 37 41 41 40 36 38 43 43 44 40 37 37 24 15 20 24 24 26 23 21 22 23 23 22 23 23 24 24 24 23 23 23 22 21 20 17 17 17 13 10 9 9 9 9 9 11 14 17 28 36 31 28 32 38
5 4 4 4 4 3 4 4 4 5 6 9 13 13 16 18 21 24 22 23 18 6 8 10 9 12 14 17 13 9 16 19 23 33 38 40 42 40 37 38 40 39 40 36 31 30 21 16 22 22 22 24 23 23 23 24 24 23 24 25 26 28 27 26 25 23 22 22 19 17 20 19 13 11 11 9 10 10 10 13 16 19 29 38 34 30 32 38
3 3 3 3 3 3 3 3 4 4 4 9 11 10 18 23 26 34 37 43 36 19 20 20 16 19 21 24 21 16 20 21 25 35 37 40 42 40 39 38 36 34 34 34 31 25 19 18 21 21 21 22 22 22 23 23 24 24 24 25 27 27 27 27 24 23 22 20 18 16 19 20 15 13 13 12 11 12 15 18 21 27 34 36 34 33 36 40
3 3 3 3 3 2 3 3 3 3 3 6 6 6 16 22 24 42 56 52 35 24 29 29 25 28 27 28 26 23 25 25 28 33 32 37 41 39 40 38 36 32 27 30 28 22 20 19 18 18 19 19 21 22 24 24 24 23 23 25 25 24 26 25 23 23 21 20 20 17 18 22 20 16 15 14 13 14 18 18 23 36 40 36 33 37 43 44
3 3 3 3 3 3 3 3 2 3 3 3 4 3 11 20 24 42 60 49 26 19 27 30 32 35 33 32 31 28 30 28 29 32 31 34 36 37 38 37 37 33 27 27 25 21 21 19 18 19 18 18 19 22 23 24 24 23 23 25 23 22 22 21 22 21 19 24 24 17 17 24 25 21 16 17 16 16 18 18 26 41 45 41 39 38 40 40
3 3 4 3 3 4 3 3 3 3 3 2 4 4 8 17 22 41 58 43 21 18 23 30 35 37 36 34 33 32 32 31 31 33 34 32 32 34 35 36 38 37 33 29 26 23 20 19 20 22 21 20 19 22 24 24 25 25 24 23 20 20 21 22 23 19 23 33 27 16 18 23 28 25 19 20 20 19 22 20 27 41 46 46 43 35 32 37
4 3 4 4 4 5 3 4 3 3 5 4 3 4 7 13 27 54 60 31 17 22 24 29 35 38 41 37 34 34 34 34 33 33 34 33 34 36 36 37 38 38 36 33 29 25 22 21 23 22 21 21 21 22 24 25 25 24 23 20 19 21 22 23 22 18 30 41 27 17 21 24 29 27 22 24 24 24 26 24 25 34 43 47 41 35 40 49
4 4 6 5 5 5 3 4 3 3 5 3 4 4 3 15 35 48 38 22 28 31 23 28 32 34 40 40 36 35 35 37 37 35 35 35 35 35 35 36 38 39 37 33 30 26 24 23 22 22 21 22 23 22 22 24 23 23 21 19 22 25 24 32 38 32 33 34 22 18 22 25 31 33 30 31 30 28 28 28 28 28 35 41 37 40 52 59
6 6 6 5 5 4 3 4 3 3 3 2 5 3 2 21 34 24 12 16 28 26 21 29 30 26 30 37 40 39 38 40 40 38 37 36 34 32 32 34 36 38 36 31 29 26 24 23 21 22 21 21 22 22 22 22 21 21 21 19 24 29 33 47 55 41 29 23 18 20 22 25 40 48 44 40 37 31 27 30 36 35 35 39 42 51 59 60
7 6 5 5 4 3 4 5 3 3 3 3 4 3 8 23 24 13 10 11 14 21 26 30 28 24 24 28 35 39 40 41 43 42 37 36 36 32 32 35 37 37 35 31 29 26 26 26 23 22 21 21 22 22 22 22 20 20 21 19 21 25 32 42 45 37 32 26 18 20 23 30 52 63 54 46 42 36 30 31 42 50 53 54 57 61 61 60
5 5 4 3 3 6 7 7 5 3 3 3 3 4 11 15 12 12 14 15 22 31 31 28 26 24 23 23 29 34 34 36 44 45 38 34 35 33 33 36 38 39 37 33 29 26 26 26 23 21 22 21 20 21 21 20 21 20 20 21 20 20 21 27 33 32 31 28 23 31 43 52 64 68 60 53 49 48 44 39 44 52 57 62 66 67 64 60
5 5 3 5 14 19 15 9 6 4 3 4 3 4 5 6 10 16 17 18 27 30 26 26 24 22 23 23 26 32 33 36 40 41 40 38 36 34 34 37 41 42 39 34 29 26 24 22 21 21 23 22 20 20 19 19 22 23 23 21 21 20 18 23 32 30 27 31 35 45 60 68 69 70 73 66 55 57 61 58 55 56 60 66 68 70 68 61
5 3 7 23 38 37 25 17 14 8 5 4 4 4 5 4 6 10 9 9 16 20 24 26 23 23 25 23 25 31 33 39 43 39 38 41 42 40 38 40 43 42 39 35 30 27 25 23 22 22 22 22 21 20 19 19 21 23 23 21 21 22 22 24 33 40 41 41 44 52 61 66 68 77 89 82 66 64 70 73 70 68 73 71 62 64 70 68
5 8 29 57 66 55 42 36 31 19 10 7 5 5 8 6 5 5 7 13 21 25 25 23 22 24 23 21 25 28 28 35 44 42 38 40 46 46 44 44 44 41 41 40 35 30 26 24 22 22 23 25 24 22 21 20 19 20 21 22 23 22 23 25 27 37 47 49 52 59 67 73 75 80 90 85 75 71 71 76 78 76 77 68 58 64 75 77
10 22 55 81 76 64 57 45 31 20 16 18 14 9 9 9 9 13 22 35 45 45 37 28 23 21 19 21 27 28 28 29 35 42 44 44 47 48 47 47 46 43 42 44 44 38 32 27 23 23 26 28 27 26 25 23 20 20 21 23 24 22 24 27 26 31 45 60 65 59 64 82 83 78 82 79 70 67 69 72 77 80 78 68 62 64 65 65
27 46 67 77 70 64 55 38 30 28 30 39 41 35 32 26 21 27 46 62 64 58 47 33 24 21 20 23 28 31 30 28 31 40 47 49 51 54 53 49 47 47 45 46 49 45 38 34 27 23 25 27 30 32 32 31 26 21 22 22 23 26 28 30 32 28 34 63 81 68 65 84 87 79 79 78 72 68 69 69 70 76 76 69 69 66 58 55
47 70 74 71 68 62 50 44 50 51 49 60 69 65 59 52 37 35 53 66 61 53 45 33 28 30 30 29 31 33 31 28 29 35 41 45 49 54 57 53 51 53 51 49 52 49 43 40 33 27 24 25 30 34 34 36 33 26 25 24 23 27 28 33 40 34 27 48 67 65 73 90 95 87 77 77 81 77 73 70 68 72 71 69 73 73 68 65
58 75 77 79 78 66 58 61 63 61 66 75 77 69 65 63 50 42 48 51 49 49 44 38 38 37 35 35 34 35 33 29 28 33 37 39 41 47 52 53 52 54 53 51 53 51 47 44 38 31 29 30 35 37 35 39 37 31 32 32 28 28 28 33 42 39 33 41 44 52 78 93 96 97 87 83 85 78 73 70 67 69 71 73 78 81 84 84
65 72 77 85 84 70 63 64 59 64 78 79 70 64 64 64 59 54 53 48 46 49 44 40 41 38 36 38 37 36 34 30 31 37 40 42 43 44 46 47 48 51 52 51 54 54 49 48 44 36 34 37 38 37 36 39 39 36 38 39 34 34 33 31 34 32 34 44 43 56 86 95 92 96 92 87 86 81 81 80 74 71 71 77 86 89 93 92
64 73 87 86 77 68 60 53 50 60 70 64 57 54 51 53 56 56 57 57 56 54 46 42 43 41 39 40 39 38 36 34 37 42 45 46 46 44 43 46 49 51 53 53 56 55 51 51 49 44 42 40 39 40 38 40 43 41 42 43 38 36 34 29 30 30 34 41 39 51 84 96 90 91 92 90 89 87 90 91 87 82 79 82 85 87 90 87
67 75 89 81 71 67 56 48 49 55 58 56 55 53 48 46 48 50 57 67 66 57 48 45 44 43 41 39 39 38 38 39 42 45 47 50 54 53 51 53 54 54 56 58 57 55 54 53 51 54 59 57 54 53 45 41 48 48 45 43 39 37 36 31 30 31 37 42 37 43 73 92 92 93 96 96 94 92 89 88 88 87 85 84 81 83 89 84
71 71 76 73 69 65 54 51 56 57 57 59 63 70 68 56 51 53 60 69 69 57 48 45 42 39 38 37 37 38 39 44 48 48 50 53 59 60 56 58 62 61 61 63 62 59 58 57 53 55 62 65 62 58 47 43 51 55 51 46 41 41 42 37 35 34 38 45 45 44 57 76 91 98 97 95 95 95 91 89 91 91 90 90 86 85 87 82
63 64 68 68 66 62 56 54 56 53 59 70 77 81 80 71 67 68 66 69 71 59 51 48 42 40 39 37 38 42 44 45 47 50 52 55 59 57 54 59 64 65 65 65 66 65 61 61 60 58 59 62 62 60 53 50 54 55 54 52 48 46 45 45 48 48 45 49 55 52 45 54 78 93 93 93 95 95 92 89 89 90 92 94 92 88 86 83
50 55 61 60 57 57 57 58 56 50 56 76 85 82 80 76 74 74 73 75 74 62 52 50 47 46 45 40 41 46 47 45 48 53 54 56 60 60 59 62 66 70 70 65 65 67 64 64 66 64 61 60 63 66 62 57 58 58 58 59 55 51 47 47 52 54 50 46 49 51 48 54 73 88 93 93 91 87 83 79 78 80 86 91 92 90 89 85
44 50 52 48 49 56 63 65 60 49 52 71 82 78 78 78 78 79 77 73 71 63 54 54 55 54 52 51 51 51 48 47 54 60 55 53 58 59 60 65 68 73 74 70 71 72 69 71 72 69 67 64 63 67 67 65 63 59 58 59 57 54 52 50 53 56 54 47 45 51 63 73 82 91 96 99 95 87 79 75 75 79 84 88 89 88 88 86
46 53 49 44 51 65 71 65 51 43 49 64 70 68 69 71 74 79 76 71 70 65 60 60 63 61 58 59 58 54 52 49 51 57 56 54 58 59 60 63 66 69 70 71 76 78 76 81 82 77 77 75 69 66 70 73 69 61 62 64 60 58 59 57 57 58 59 63 68 74 81 88 94 96 97 100 100 94 88 79 75 80 87 88 88 89 88 87
46 53 49 48 56 63 65 56 43 41 51 57 59 62 65 62 61 66 72 75 72 66 63 62 62 62 62 62 58 55 59 61 58 59 59 55 57 59 59 60 60 61 63 63 68 72 74 80 82 78 80 82 77 73 78 82 76 68 70 74 68 62 64 65 64 62 64 73 87 92 89 88 95 97 94 97 101 99 96 88 79 81 86 85 84 86 86 85
39 47 49 52 52 53 59 54 44 48 58 57 56 62 64 59 57 58 63 68 69 65 60 54 51 52 53 58 59 53 53 61 64 65 64 60 59 60 60 59 56 57 61 61 61 62 64 68 73 74 79 83 81 80 84 85 83 80 81 81 76 69 68 71 72 70 67 71 84 95 92 86 92 96 91 94 100 97 94 92 88 88 89 85 82 81 79 81
Wind_Speed
9 9 9 9 9 9 10 10 11 11 12 12 12 13 13 13 13 13 13 13 13 13 13 13 14 14 14 13 13 12 11 11 11 10 9 10 11 9 9 10 12 10 8 9 10 10 10 11 12 14 16 17 18 18 18 20 21 21 18 16 17 19 20 19 14 11 5 4 11 12 4 3 2 4 6 6 10 11 8 8 8 8 7 7 6 6 6 9
9 10 9 9 9 9 10 10 10 11 11 12 12 13 13 13 13 13 13 13 13 13 13 13 14 14 14 14 13 12 11 10 10 11 10 10 9 9 10 10 11 10 8 9 10 10 10 10 12 14 16 17 18 18 20 21 22 22 19 19 22 21 18 17 14 11 6 8 13 13 7 7 4 5 7 7 11 12 9 8 9 8 9 7 5 5 6 9
9 10 10 10 10 10 10 10 11 11 11 12 12 12 13 13 13 13 13 13 14 14 14 14 14 14 14 14 13 13 11 10 10 11 11 11 10 10 11 9 10 9 8 10 10 10 11 12 13 14 16 17 18 19 21 21 22 22 20 22 24 21 18 18 15 12 11 14 13 15 10 7 1 5 6 8 9 11 12 10 9 9 8 7 7 8 10 10
9 10 10 10 10 10 10 10 11 11 11 12 12 12 13 13 14 14 14 14 14 14 14 14 14 15 14 14 14 13 11 10 11 11 10 9 9 9 10 9 9 9 10 11 11 12 13 15 16 15 16 18 18 20 21 20 21 22 22 24 23 20 20 19 17 15 14 12 12 15 12 7 3 5 2 5 8 10 11 12 10 9 9 7 7 9 10 11
10 10 10 10 10 10 10 11 11 11 12 12 12 12 13 13 14 14 14 14 15 15 15 15 15 15 15 14 13 12 11 10 10 11 9 7 7 7 8 8 8 9 10 11 11 12 14 16 17 18 18 19 19 21 21 20 21 21 22 23 21 20 22 18 14 14 14 13 16 17 14 10 6 5 3 4 8 11 9 10 10 10 11 11 10 10 9 10
10 10 10 10 10 11 11 11 11 11 12 12 12 12 13 13 14 14 15 15 15 15 15 15 15 14 15 14 12 12 10 9 10 12 11 9 10 9 8 7 7 8 10 10 11 13 14 15 17 19 20 20 21 22 21 20 20 20 21 21 21 20 21 17 13 12 12 14 16 16 17 15 8 6 5 6 9 11 9 10 10 10 12 13 13 12 12 12
10 10 11 11 11 11 11 11 11 12 12 12 12 12 13 13 14 14 15 15 15 16 15 15 15 15 15 14 12 12 10 10 12 15 15 12 11 10 9 8 8 8 8 9 11 12 13 15 16 17 19 20 21 22 21 19 17 18 20 20 20 20 19 17 14 14 14 15 16 16 18 17 12 9 8 9 11 12 9 8 8 10 13 14 13 13 14 14
10 11 11 11 11 11 11 12 12 12 12 12 12 12 13 13 14 14 15 16 16 16 16 16 16 15 15 14 13 12 10 11 12 14 15 13 12 11 10 10 10 9 8 10 10 10 12 14 14 17 20 20 19 19 17 16 15 17 19 18 17 18 17 16 16 17 16 17 18 17 19 20 19 18 14 12 14 13 10 6 7 11 12 13 13 14 15 15
11 11 11 11 11 11 11 12 12 12 12 12 12 12 13 13 13 14 15 15 16 16 16 16 16 15 15 14 14 12 11 12 12 13 16 16 14 11 10 10 11 10 10 10 11 12 14 13 14 16 18 16 15 14 12 12 15 17 17 16 17 18 16 17 19 20 17 16 17 16 17 16 15 18 18 16 15 14 10 4 6 10 10 11 13 15 15 15
11 11 11 12 12 12 12 12 12 12 13 13 13 13 13 13 13 14 15 15 16 16 16 17 16 16 15 14 14 12 11 12 12 14 17 17 16 13 12 11 10 10 10 11 12 13 11 10 12 14 13 13 13 12 12 14 16 15 17 19 21 22 22 22 22 22 20 19 18 15 13 9 7 10 13 15 15 13 10 6 6 8 7 8 10 12 14 15
12 12 12 12 12 12 12 12 13 13 13 13 13 13 13 13 13 14 14 15 16 16 17 17 17 16 15 15 14 12 11 12 14 16 17 18 18 15 13 12 10 10 10 11 12 11 8 8 11 13 13 12 12 12 13 15 16 16 19 22 24 24 25 24 21 21 22 23 21 18 18 14 12 11 12 14 15 14 12 10 9 9 7 6 6 7 10 14
13 13 12 12 12 12 12 13 13 13 13 13 13 13 14 14 14 14 14 15 15 16 17 17 17 16 16 15 11 11 12 13 15 16 17 17 17 15 13 12 10 10 10 10 10 10 9 9 14 15 12 11 11 11 13 15 18 21 21 23 24 24 26 24 21 20 20 21 20 20 21 20 18 17 16 17 17 16 16 14 12 10 8 8 5 4 5 10
13 13 13 12 12 12 12 12 13 13 12 13 13 13 14 14 14 14 15 15 15 16 16 17 17 16 16 13 7 11 15 14 14 15 15 16 15 13 13 11 10 10 10 11 10 10 11 14 17 16 12 11 12 13 15 15 18 21 21 23 23 23 27 26 21 20 18 16 16 18 21 21 19 17 16 20 20 18 18 16 14 12 11 10 7 4 6 8
13 13 13 13 13 12 12 12 12 12 12 13 13 13 14 14 15 15 15 15 16 16 17 18 17 16 16 11 8 13 15 14 14 13 13 15 14 11 12 10 10 11 11 12 13 13 15 18 17 16 16 15 16 17 19 17 17 18 18 21 19 22 28 26 21 22 20 14 13 17 22 22 19 17 14 19 23 22 20 19 18 15 13 14 10 6 9 9
13 13 13 13 13 13 13 12 12 12 13 13 13 14 14 14 14 15 16 16 16 17 18 19 17 17 16 12 10 13 13 12 11 9 12 15 13 10 10 9 9 12 13 15 18 18 19 20 18 16 17 18 19 20 21 21 21 19 18 19 18 22 28 26 22 24 22 15 13 18 23 22 18 17 13 16 24 26 25 23 22 20 17 18 14 9 11 11
13 14 14 14 14 14 14 13 13 13 13 13 13 14 14 15 14 15 17 16 16 17 19 20 18 17 16 12 11 10 9 9 5 7 13 15 14 9 8 10 11 13 16 18 21 21 21 19 17 17 18 20 22 22 22 22 23 22 21 22 20 21 24 24 24 25 24 18 15 18 22 22 20 19 16 16 23 28 29 26 25 23 21 21 18 12 13 13
14 15 15 16 16 16 16 15 15 15 14 14 14 14 15 15 15 16 17 16 17 17 20 21 19 18 16 13 11 7 5 4 3 6 11 11 10 8 9 12 12 13 16 19 22 23 21 17 15 18 20 21 24 23 20 22 27 27 25 24 22 19 18 22 23 21 23 23 21 21 24 25 23 23 23 21 22 28 31 29 26 24 23 24 20 16 15 14
15 16 16 17 17 17 17 17 17 17 16 16 15 15 15 16 16 17 17 18 17 18 21 21 19 18 12 7 7 6 6 5 3 2 5 5 6 7 10 12 11 9 10 15 21 23 21 18 18 19 22 24 26 27 26 27 31 30 26 23 21 19 18 20 21 17 17 21 22 23 26 27 27 26 26 25 24 28 30 29 28 26 26 27 22 19 16 14
16 17 17 18 18 18 18 18 17 17 16 16 17 16 16 17 17 18 19 19 18 18 20 19 18 17 11 6 4 6 9 8 6 3 2 3 5 7 11 13 11 8 8 10 16 20 19 19 21 23 27 29 29 30 31 31 28 24 23 21 19 20 21 21 20 18 17 20 22 24 27 27 28 30 29 27 25 28 30 28 27 27 28 28 23 19 15 13
17 17 18 18 18 18 17 17 16 16 15 15 15 16 17 18 18 18 21 21 18 18 20 20 19 18 15 10 7 9 10 9 7 4 3 4 4 5 13 16 14 13 14 12 12 15 16 20 25 30 30 27 26 27 28 29 27 25 22 20 20 22 25 23 23 22 20 23 25 25 27 28 30 32 31 28 25 26 29 27 25 26 29 28 24 18 13 14
17 17 18 18 18 17 16 17 16 15 14 13 14 14 16 18 17 19 24 25 20 19 21 20 20 19 14 10 11 13 12 13 12 7 4 6 5 6 13 18 18 18 18 15 13 12 15 22 28 29 26 22 21 22 23 24 25 27 26 23 23 25 28 26 26 26 21 22 25 24 27 30 33 32 30 31 30 27 29 30 25 24 27 28 24 17 15 19
16 17 17 17 17 16 16 16 15 14 12 12 13 14 15 17 18 21 28 28 22 21 21 18 19 19 15 11 12 16 18 19 17 12 9 10 11 9 12 18 21 19 18 18 17 16 20 27 27 21 17 17 18 19 21 21 21 25 26 26 27 26 26 27 28 27 20 19 23 24 26 30 34 32 29 30 31 29 29 31 27 22 26 29 24 17 18 24
16 16 16 16 16 15 15 15 14 12 11 12 14 15 16 17 18 22 26 29 25 22 21 19 19 18 15 13 12 19 24 22 19 16 14 16 14 10 13 18 19 18 18 21 21 20 24 20 14 13 13 15 17 17 18 20 21 23 24 27 29 26 24 27 28 24 19 20 25 27 27 28 31 31 31 29 28 28 29 28 24 23 26 29 25 19 22 26
15 15 15 15 14 14 14 14 13 11 11 12 14 16 17 17 17 21 23 27 28 22 18 18 19 18 13 11 13 20 23 22 21 17 16 19 17 11 13 17 18 19 20 23 21 23 24 10 3 10 14 16 17 15 17 21 22 23 24 27 28 26 24 26 26 24 25 22 17 20 21 23 27 27 29 29 25 25 25 23 22 21 23 27 26 22 24 25
14 14 13 14 14 13 12 12 12 11 10 12 14 15 16 16 18 20 19 21 24 19 15 16 18 15 10 10 15 19 21 23 23 18 16 18 17 13 13 15 19 21 20 20 19 24 22 10 8 14 15 16 18 17 18 20 23 24 24 24 25 25 25 27 25 21 24 21 11 15 12 14 22 25 26 27 26 26 24 22 22 19 22 29 26 22 23 24
13 13 13 13 13 12 12 12 11 10 10 11 13 12 11 13 15 14 13 16 18 13 9 12 14 13 12 14 16 17 20 23 22 19 17 16 15 14 13 14 20 21 18 15 16 21 17 9 12 17 15 17 19 20 18 18 22 26 23 20 19 19 19 22 20 15 17 19 16 19 14 8 15 22 24 25 27 25 21 23 24 22 28 31 25 22 23 23
13 12 12 13 12 10 11 12 11 10 11 11 12 10 7 8 8 6 8 11 11 8 5 4 10 11 10 10 14 17 14 13 18 21 20 17 16 17 16 15 18 19 18 16 18 20 13 7 11 16 18 20 22 24 20 18 23 25 20 18 19 18 15 14 15 14 16 20 22 21 14 7 9 16 16 18 22 17 12 19 25 26 30 29 25 24 23 21
12 10 9 11 10 8 8 11 11 10 11 12 11 8 6 6 4 2 3 3 4 5 6 2 7 7 5 7 13 15 7 4 13 16 17 20 20 20 20 18 17 16 16 19 22 20 13 11 12 13 19 22 23 23 19 19 25 23 16 17 20 20 19 19 18 18 17 18 21 19 11 5 5 9 12 14 16 14 10 12 20 28 31 29 26 24 22 20
9 7 6 9 9 6 7 10 9 8 10 12 10 7 7 6 2 2 1 1 2 3 4 2 6 5 5 8 12 12 7 5 6 5 12 20 21 22 22 18 16 16 16 20 24 21 16 18 16 17 22 24 20 17 17 22 26 23 17 17 19 16 16 17 18 20 17 11 16 20 12 6 3 4 9 12 13 15 12 10 16 30 31 29 27 23 21 19
7 5 5 8 9 7 8 10 8 8 9 11 9 7 7 6 4 4 1 3 5 4 2 3 5 5 6 8 11 12 9 7 7 4 9 18 19 21 21 18 16 18 20 23 26 25 22 20 19 20 23 23 19 16 15 16 18 18 15 15 16 16 15 14 16 19 13 7 15 20 13 9 4 4 7 10 11 12 12 11 17 29 32 29 26 21 19 19
7 6 6 7 9 9 10 11 9 7 8 9 8 9 9 7 6 4 1 5 7 4 1 3 4 4 10 10 11 15 13 10 12 11 10 16 21 23 22 21 20 20 23 25 27 28 27 25 24 22 20 19 18 17 13 9 10 13 14 14 14 14 13 13 14 13 6 4 12 13 12 10 5 5 8 9 9 10 11 12 16 28 31 28 25 21 20 19
7 7 8 7 9 10 12 12 10 7 8 9 8 8 10 8 7 9 8 5 3 3 5 11 14 10 7 11 13 16 17 14 14 16 15 17 22 26 24 22 23 20 20 23 24 26 29 29 25 21 19 17 17 18 16 14 14 12 13 15 11 5 5 6 5 5 4 5 8 10 12 9 6 7 9 9 8 9 10 10 13 27 31 27 24 22 20 18
8 8 10 9 9 11 12 12 11 8 8 9 8 8 11 7 6 14 15 9 5 3 10 17 15 15 11 11 15 15 18 17 13 14 17 17 20 26 24 21 22 21 17 17 17 19 22 24 21 18 18 18 17 18 17 16 16 14 14 16 12 3 1 2 3 1 2 6 8 10 10 6 4 3 4 6 8 11 12 8 13 27 29 26 24 21 20 18
9 9 10 10 9 10 11 11 11 9 8 9 8 9 12 9 6 10 13 12 11 9 17 19 16 14 10 7 14 14 15 17 16 14 15 17 20 25 26 24 21 21 20 17 15 15 14 14 15 15 15 17 18 18 16 14 15 16 15 15 16 12 5 2 2 2 2 5 8 10 7 3 4 3 2 2 4 6 8 5 14 24 23 22 22 21 20 17
9 10 9 8 8 8 9 9 8 8 7 8 9 11 15 14 10 9 10 10 10 14 18 17 16 13 10 9 10 17 13 13 17 16 13 17 22 25 27 26 21 19 20 19 16 15 14 15 16 15 14 15 16 17 16 16 16 18 18 17 20 20 14 6 3 3 2 1 3 5 5 9 12 8 6 7 8 10 10 9 15 19 18 19 21 21 18 13
8 8 7 6 5 5 6 6 4 4 5 6 9 14 16 14 11 9 9 9 10 16 21 16 10 10 13 16 9 9 12 14 16 14 11 13 19 24 24 22 20 18 18 19 16 12 12 15 15 14 14 14 16 18 18 17 15 15 16 17 19 20 16 8 4 3 2 1 1 6 12 16 15 10 10 13 12 14 17 17 18 19 18 18 18 17 15 12
6 6 5 2 1 2 3 1 1 3 3 4 8 12 15 15 13 13 13 13 12 15 20 17 12 12 14 16 16 9 2 10 15 16 16 13 13 20 24 21 19 18 16 20 22 18 15 17 15 14 14 14 17 20 21 18 14 16 15 10 11 16 14 8 3 1 1 1 1 5 10 10 7 6 10 15 15 15 18 19 19 20 20 18 16 15 14 12
5 3 1 3 2 2 3 1 1 3 3 4 7 10 12 13 11 11 10 11 13 14 16 17 16 13 13 16 19 15 8 3 7 15 18 15 12 15 20 20 20 21 15 11 15 16 17 19 18 15 12 10 13 16 19 20 18 19 16 10 8 10 11 9 5 2 2 1 1 2 5 5 5 7 12 16 17 16 16 18 19 19 18 16 15 14 13 11
3 1 4 4 2 2 4 4 5 6 6 5 6 7 8 9 7 5 4 9 15 17 16 16 16 17 18 18 18 16 11 7 3 9 13 13 14 15 17 18 20 23 17 7 6 8 10 13 18 16 7 4 7 6 7 13 17 17 17 16 14 8 7 8 7 6 5 3 0 1 1 2 4 7 14 17 18 18 17 18 17 17 16 14 13 12 11 11
1 3 4 2 1 4 6 7 8 8 7 5 6 6 6 8 6 5 4 13 16 15 15 16 17 18 20 17 13 12 9 7 7 4 10 11 13 16 16 18 21 24 24 16 10 11 9 10 17 19 11 7 7 5 3 3 8 14 16 19 18 8 4 5 5 6 6 5 3 1 1 1 4 6 12 17 18 19 19 18 17 16 15 13 13 12 12 13
3 4 4 4 6 7 8 7 6 6 4 4 6 7 7 8 7 7 6 13 14 10 9 12 13 12 13 13 10 9 7 5 6 4 6 8 11 13 13 15 18 20 25 26 21 16 9 7 13 18 16 13 9 10 5 5 3 7 11 13 17 15 9 5 4 5 6 6 7 5 2 4 6 6 11 15 16 18 19 18 17 16 14 14 14 14 13 13
3 4 4 7 7 7 6 4 4 5 5 5 7 8 9 10 9 9 10 12 12 8 6 7 8 5 5 7 8 9 8 4 4 7 5 3 3 7 9 10 13 12 17 26 26 17 9 6 10 14 13 9 9 15 15 6 4 2 7 8 12 17 19 13 6 7 9 7 7 7 3 5 8 9 12 16 16 16 17 16 15 15 14 14 15 14 14 14
4 4 5 5 4 4 4 5 7 6 6 8 10 11 12 13 11 11 13 13 13 10 7 6 7 5 5 4 7 9 7 2 5 8 2 3 2 2 4 4 7 9 13 23 23 16 9 6 7 10 8 8 12 17 21 17 10 3 5 6 6 9 17 16 12 14 15 11 9 6 3 5 10 11 14 16 15 15 15 14 14 14 13 14 14 14 14 12
6 6 6 4 2 4 7 10 10 8 8 9 10 10 10 12 12 13 14 13 13 12 9 6 7 6 6 3 4 5 5 3 6 8 3 5 2 0 3 5 5 7 11 18 20 16 11 5 4 5 4 7 10 12 17 16 12 6 3 6 4 5 11 10 11 17 17 14 14 8 4 7 12 12 13 13 13 15 14 12 12 12 11 12 11 11 13 14
6 7 7 3 3 6 9 11 11 10 10 10 10 9 7 8 10 13 14 10 9 10 9 7 6 7 6 4 3 3 4 4 4 4 3 6 3 1 1 3 5 6 9 16 20 20 14 6 4 4 3 4 4 5 11 13 8 5 1 1 4 7 5 5 13 18 13 14 18 12 10 15 16 13 13 13 14 16 14 13 13 13 12 12 11 12 16 18
7 8 7 3 1 3 8 10 8 8 9 8 7 6 5 4 5 8 10 8 8 10 9 8 9 9 8 8 6 5 3 4 3 2 4 5 4 2 2 2 3 5 6 12 17 20 15 8 6 5 4 4 3 2 7 13 12 9 6 6 5 5 10 3 10 14 10 11 14 11 12 19 21 17 15 15 14 15 17 17 16 15 14 14 15 17 20 19
8 8 6 2 3 1 8 9 8 10 10 7 5 5 5 4 2 2 5 4 6 10 9 9 10 9 8 9 8 5 2 1 2 1 4 6 4 2 3 4 3 1 4 7 11 15 15 10 7 8 7 4 3 3 2 6 9 12 12 11 12 9 6 6 6 5 8 11 10 11 13 17 22 21 16 16 15 15 18 18 16 17 16 15 16 16 17 16
7 7 5 3 3 3 8 9 10 15 13 7 4 5 5 5 5 3 3 2 2 6 10 9 7 6 7 10 10 6 3 3 2 2 5 7 6 3 3 4 4 4 4 6 6 8 12 11 9 9 9 5 1 3 3 2 4 7 9 10 12 14 11 6 8 7 2 6 8 13 15 16 21 21 16 17 18 17 17 16 16 16 16 15 15 14 15 15
5 5 5 4 4 5 7 8 11 14 11 6 5 4 6 6 6 5 2 2 1 2 6 6 5 6 7 7 8 7 6 4 2 5 6 7 7 4 3 3 2 5 6 6 2 2 5 9 10 10 10 9 6 5 3 1 4 5 4 6 10 12 13 10 7 7 6 4 8 15 19 19 21 21 19 19 19 18 18 18 17 17 17 15 14 14 15 16
5 6 6 6 6 6 5 7 10 10 7 7 7 7 8 6 3 4 2 1 2 2 3 2 3 6 7 6 4 4 5 5 2 2 5 7 7 5 6 6 4 3 6 6 5 4 3 3 4 5 7 8 9 9 6 3 6 7 6 7 9 10 11 11 9 8 6 2 13 20 22 23 23 22 22 21 19 18 19 19 19 18 16 15 15 15 15 17
8 8 8 8 8 9 6 5 7 8 8 10 10 10 11 11 7 2 2 2 3 4 4 3 3 5 6 5 2 1 2 5 4 3 4 5 7 7 6 4 2 6 7 6 3 2 3 3 2 1 3 4 5 8 10 8 9 10 9 7 6 7 8 8 7 8 6 7 17 23 24 24 25 24 24 23 21 19 20 21 19 18 16 15 15 14 14 15
10 10 9 8 8 8 5 2 4 7 9 10 9 9 11 14 13 7 2 5 6 7 6 5 6 6 5 5 4 1 1 5 6 6 5 5 7 7 2 3 6 5 5 6 5 3 2 3 3 1 2 4 5 7 11 13 10 7 5 5 5 6 6 5 6 7 7 9 16 24 25 23 24 25 25 25 24 22 23 24 23 22 21 19 16 14 13 14
Wind_Direction
295 295 294 293 292 291 291 291 290 289 289 289 289 289 289 289 289 289 289 288 287 285 283 281 279 279 281 284 285 287 288 288 287 286 280 271 275 277 264 258 261 260 248 246 243 238 231 229 230 224 221 217 213 214 213 212 207 201 200 214 224 222 217 210 209 221 224 348 1 12 1 297 301 208 195 217 239 239 222 205 218 221 204 199 204 209 211 224
298 298 298 297 296 296 295 294 293 292 292 291 291 291 291 292 291 291 290 289 288 286 285 282 281 279 279 280 282 284 285 288 287 280 274 274 274 266 260 255 258 259 248 241 237 232 223 221 226 224 224 219 213 211 212 211 210 210 206 212 223 224 218 215 217 215 234 296 318 334 319 282 284 186 204 241 241 239 236 197 186 200 197 198 219 228 227 225
298 298 298 297 298 297 296 296 295 294 294 294 294 294 293 292 292 291 290 289 287 286 285 283 282 281 279 278 280 281 282 285 283 275 272 274 271 260 257 254 253 252 244 241 234 227 216 212 214 218 222 219 212 210 215 213 211 215 214 217 229 236 231 226 222 221 263 287 303 328 323 274 222 142 220 248 236 232 241 231 204 205 218 237 251 246 246 237
298 297 297 297 298 298 299 298 297 297 296 295 295 294 293 292 291 291 289 288 287 286 285 283 283 281 280 278 279 280 281 280 278 278 277 273 271 262 256 250 247 244 240 239 233 226 218 214 210 208 214 216 211 211 217 214 211 216 220 228 237 244 240 232 230 240 270 284 291 313 318 275 179 106 300 273 254 242 240 251 255 252 254 262 251 243 249 243
298 297 298 298 299 299 299 299 298 297 295 295 294 293 292 291 291 290 290 288 287 286 284 283 283 281 281 278 278 281 280 278 275 277 279 269 265 258 250 246 243 240 239 239 233 227 224 221 213 207 208 209 209 211 217 213 210 214 220 235 242 245 249 244 245 263 277 281 282 290 303 291 213 162 315 300 277 273 271 277 289 290 282 276 260 249 247 242
298 298 299 298 299 299 299 298 297 295 294 293 292 292 291 291 291 290 290 288 287 286 284 283 282 281 281 279 279 280 277 274 268 267 265 258 259 254 244 242 240 237 237 238 233 229 227 225 221 218 214 206 207 213 213 208 211 220 221 231 238 242 253 254 257 279 282 273 278 288 300 294 244 209 236 253 282 292 301 303 305 303 292 284 270 260 254 247
299 299 300 300 300 299 299 297 295 294 293 292 292 291 291 291 290 290 289 288 287 285 285 284 282 281 281 280 278 277 276 266 257 259 260 256 253 250 245 240 237 233 233 232 230 231 228 228 227 225 222 209 206 214 210 201 207 227 228 227 238 246 256 264 269 280 281 272 282 297 298 286 267 263 245 246 279 289 304 313 297 288 284 282 277 267 257 245
300 301 300 300 299 298 298 297 296 295 293 293 292 291 291 290 289 289 288 287 286 286 285 283 282 281 280 282 278 275 272 260 252 256 261 259 250 246 245 243 240 232 223 224 224 225 227 230 225 222 226 213 204 209 205 203 210 228 232 226 236 245 252 263 271 281 282 274 281 291 287 283 279 277 269 265 275 279 295 314 281 271 272 277 275 264 251 240
299 300 299 298 298 296 295 295 294 294 294 294 292 292 291 290 289 287 286 286 285 285 285 284 283 281 280 281 280 276 268 258 253 253 258 260 255 254 250 243 239 231 223 221 216 216 221 224 219 223 229 215 203 194 191 220 227 229 238 241 250 256 258 265 270 275 276 269 276 280 276 284 280 269 266 262 265 269 275 278 259 257 265 275 267 255 244 238
298 298 297 296 295 294 294 292 292 292 293 293 293 292 291 290 289 288 287 284 284 284 284 285 283 282 280 278 277 277 270 260 254 249 252 256 256 253 248 241 233 227 224 219 219 220 219 218 215 220 220 207 204 193 193 229 234 234 247 251 255 260 262 265 267 268 270 270 273 270 262 270 268 259 261 257 257 259 257 248 235 243 265 272 259 251 243 236
299 298 296 294 292 291 290 289 290 290 291 292 292 291 290 290 289 288 287 284 284 284 283 283 282 282 281 277 276 276 268 258 252 248 249 254 255 247 239 238 233 224 220 216 221 217 202 202 202 202 204 202 208 215 220 234 244 249 255 252 245 250 255 254 260 266 266 266 268 265 262 265 261 259 265 264 260 254 255 253 239 240 248 245 247 258 247 232
298 297 295 293 291 289 287 287 287 288 289 290 290 290 290 289 288 288 287 284 285 283 282 282 282 282 279 276 278 273 261 253 253 253 252 254 259 252 234 225 223 222 215 211 215 205 184 178 188 196 203 207 216 235 240 238 248 251 253 258 251 250 253 249 255 262 260 263 264 261 261 262 261 266 266 261 261 255 254 253 241 238 231 226 236 261 256 229
296 295 294 292 290 288 287 286 285 286 287 287 288 287 288 288 288 288 285 284 285 284 284 282 282 283 279 277 275 263 259 256 257 258 260 261 263 257 235 212 208 215 207 202 200 188 181 180 190 199 201 214 228 239 242 232 240 244 245 256 260 261 254 243 246 248 251 267 264 255 259 258 259 268 262 249 252 252 248 245 235 232 230 226 224 245 268 246
294 293 293 292 290 288 287 286 285 286 286 286 286 285 286 286 286 287 284 283 282 282 283 283 284 284 279 278 264 259 261 263 265 267 270 266 263 259 241 216 206 213 201 190 184 175 181 188 196 204 202 218 235 243 248 237 235 242 244 249 256 263 252 237 236 241 246 260 257 253 258 258 260 266 255 241 247 250 247 244 237 238 237 225 219 245 266 256
294 293 292 290 289 289 288 287 286 285 286 286 285 283 283 282 284 284 282 281 280 280 281 281 284 287 285 283 267 262 264 268 275 278 267 262 264 264 246 222 204 208 200 187 180 175 181 190 201 212 215 228 238 247 253 244 238 241 249 251 244 251 253 243 233 235 242 248 245 252 258 260 260 259 248 237 245 249 248 246 243 245 242 227 221 244 257 248
294 292 291 290 289 288 286 286 286 285 285 285 285 283 281 281 280 277 277 279 278 277 277 278 282 286 288 288 277 269 264 263 262 245 246 256 267 264 227 204 198 205 202 190 182 180 186 195 209 223 231 236 236 241 249 249 242 234 243 250 238 241 256 254 241 233 240 246 240 243 255 261 257 254 249 239 242 246 247 247 246 248 244 231 225 236 245 242
292 291 290 290 288 287 285 284 284 283 283 283 283 283 282 280 275 273 274 274 274 274 275 276 281 285 288 286 276 263 241 234 215 233 246 260 272 256 209 193 189 196 200 193 189 191 196 207 224 230 233 234 231 232 239 246 238 226 230 241 240 246 258 260 254 241 236 243 244 241 248 255 252 252 252 246 242 243 244 247 247 248 244 234 226 227 232 240
290 291 290 289 287 286 284 283 282 281 279 277 276 278 280 280 275 272 271 269 270 272 274 276 280 283 285 276 256 217 190 185 156 223 265 283 281 252 211 189 175 178 196 196 197 202 206 216 227 229 230 229 227 225 225 229 229 223 227 238 245 249 251 255 258 253 246 249 250 249 252 253 248 247 249 249 247 243 245 248 248 248 246 237 225 219 224 240
291 291 289 288 287 286 285 284 282 279 277 275 273 272 272 274 274 272 270 267 267 269 273 276 275 273 266 258 240 192 188 190 167 163 254 312 310 254 210 192 186 198 222 216 209 210 214 221 224 224 227 226 224 225 226 230 232 230 233 243 252 252 250 253 258 265 273 270 263 259 259 257 250 246 245 246 246 247 249 251 251 249 244 233 219 214 222 244
291 290 289 289 288 287 287 285 283 279 277 276 273 271 269 270 270 269 266 263 266 268 268 272 274 272 265 254 225 200 204 211 201 184 246 291 323 256 210 194 194 208 226 232 225 217 219 228 227 228 231 229 228 231 234 240 241 239 240 246 252 255 258 258 262 269 280 284 279 272 267 260 252 247 246 245 244 244 247 249 250 247 239 226 211 209 228 247
291 290 289 289 289 289 287 284 282 280 279 277 274 270 267 268 268 266 265 262 262 264 266 268 270 270 265 243 213 210 223 232 231 214 221 261 275 248 212 194 192 206 221 229 233 228 226 232 231 232 238 240 240 239 241 243 243 241 242 248 250 254 261 263 265 273 284 288 282 282 279 263 249 246 247 247 243 240 242 245 245 241 233 221 207 210 235 238
291 290 289 289 289 288 286 284 283 284 284 276 270 264 261 263 263 264 267 266 259 257 263 263 262 266 268 253 221 216 227 234 237 221 201 229 243 241 220 200 197 206 217 228 235 234 235 240 238 236 243 249 248 244 241 240 240 239 240 248 253 254 265 269 267 275 284 283 280 288 288 265 248 248 250 246 243 240 240 244 248 247 234 218 206 215 232 226
291 289 288 288 286 286 285 284 285 285 280 268 263 261 258 257 259 262 269 274 269 259 258 258 259 262 259 253 222 213 227 234 234 221 202 217 233 242 229 212 206 207 214 228 234 233 237 243 240 235 244 253 254 246 238 236 235 236 237 246 253 256 267 271 272 279 279 276 284 291 285 263 248 250 252 243 239 240 240 244 254 262 247 223 209 218 227 225
289 287 287 285 283 283 282 283 285 281 272 267 263 259 259 257 259 265 269 278 281 271 259 255 256 254 251 252 226 217 231 237 232 219 200 210 224 241 237 220 216 215 218 229 235 240 240 228 200 244 249 253 258 247 231 234 238 238 241 246 253 258 262 267 276 290 285 279 296 305 288 260 250 251 244 233 229 236 238 241 250 262 249 221 208 215 223 226
286 286 284 281 280 280 280 281 281 278 272 267 263 263 270 273 273 276 278 285 292 288 267 251 246 246 240 229 221 217 225 233 230 219 207 212 219 234 237 224 222 222 227 231 235 245 243 218 230 256 254 252 257 246 225 232 244 246 245 249 259 266 266 267 275 292 292 283 309 336 313 248 240 240 231 224 226 232 235 238 239 235 219 207 205 213 219 224
285 285 284 281 278 278 278 276 273 274 272 267 267 272 286 292 289 292 297 298 301 304 284 249 232 233 231 224 218 209 217 231 227 215 215 218 222 234 238 227 225 225 228 232 238 244 240 223 242 254 254 253 255 250 231 226 246 253 253 254 261 269 268 264 269 287 290 280 293 313 307 242 216 218 222 223 224 231 237 234 226 210 201 202 205 211 216 220
286 286 284 280 277 276 272 270 266 263 264 261 267 279 295 303 302 313 312 301 304 319 318 237 204 215 225 223 216 203 210 230 217 211 218 217 217 231 238 233 230 228 223 226 237 238 232 225 241 248 251 251 251 251 243 231 241 249 251 253 256 263 262 257 268 281 284 287 294 299 294 263 203 201 212 213 212 221 234 228 217 203 198 200 203 208 214 216
286 283 280 277 277 274 264 267 266 260 261 260 266 276 273 283 303 343 323 303 308 318 323 261 187 195 187 190 212 211 205 191 193 206 220 217 215 224 232 232 234 237 222 220 232 234 239 251 255 259 254 251 253 255 255 246 242 241 242 251 256 264 265 259 265 277 290 298 293 291 291 271 215 202 208 211 217 230 246 243 218 202 199 200 202 203 205 210
283 277 270 272 278 277 264 268 270 267 262 257 264 266 253 264 242 143 82 325 287 299 328 282 191 179 166 190 210 217 225 208 187 197 207 211 219 223 229 234 235 245 236 229 237 240 244 250 260 275 266 258 260 263 264 255 246 241 241 248 256 269 269 257 260 275 287 286 273 280 280 261 278 251 235 240 251 252 260 262 215 200 200 199 198 199 204 214
278 270 264 270 279 285 276 273 275 274 265 256 252 237 235 245 197 164 116 258 271 295 313 277 236 208 204 223 224 217 225 225 219 233 203 207 219 222 228 235 237 246 246 242 245 246 245 247 256 272 271 265 261 261 262 251 239 238 242 248 257 268 268 256 256 267 278 260 259 270 257 233 268 297 264 257 262 266 269 259 216 202 199 196 196 204 214 220
281 278 274 273 280 285 279 276 276 273 270 262 242 216 217 216 188 162 166 251 289 325 89 36 350 237 212 225 229 216 220 228 226 233 224 212 214 216 221 227 231 240 246 247 248 248 251 254 257 263 268 267 259 250 244 230 227 234 242 251 261 267 262 255 251 250 249 245 256 249 216 207 223 253 267 263 261 270 276 271 231 208 198 193 198 207 212 212
288 289 285 281 281 282 277 277 277 267 260 259 243 215 204 195 196 210 225 267 313 99 70 23 3 332 260 228 221 216 221 232 232 229 229 222 214 214 218 219 222 230 242 249 250 253 254 253 255 259 258 255 251 246 239 236 240 240 239 243 250 271 267 253 247 227 204 221 231 212 200 204 218 243 265 269 267 267 278 291 240 212 201 195 200 204 202 202
293 293 290 288 284 280 277 277 275 264 250 248 243 215 194 182 219 230 235 251 217 180 358 350 336 334 323 242 224 227 232 237 243 234 230 230 222 221 223 221 222 228 238 248 254 261 262 253 252 259 255 246 241 243 242 239 240 241 242 243 237 205 78 260 259 291 239 222 208 202 206 204 193 235 279 271 268 269 279 282 214 205 200 196 197 193 193 199
297 294 290 291 287 281 280 277 274 267 251 243 235 209 194 197 232 244 248 261 262 300 335 331 313 324 339 271 235 230 237 240 239 235 229 227 225 224 222 219 223 232 239 246 253 260 264 258 254 256 256 249 238 236 239 241 243 241 241 251 248 227 201 219 228 230 253 223 198 197 209 181 142 99 36 222 227 243 265 249 189 189 187 184 184 187 191 195
298 292 291 293 290 286 280 272 268 264 252 246 231 210 208 218 239 262 274 279 292 317 321 317 317 326 355 350 261 229 238 247 232 231 236 230 227 224 219 217 219 230 237 238 246 254 256 259 258 254 257 257 242 235 239 245 248 243 243 259 260 240 226 230 219 212 246 264 172 160 115 111 126 119 117 146 150 154 165 173 174 178 180 180 183 188 190 192
294 291 296 296 295 295 282 266 265 270 257 248 234 225 228 238 251 266 282 289 298 319 323 319 325 339 357 3 336 242 238 246 231 230 241 235 225 217 215 219 222 228 237 237 238 246 252 259 260 257 260 256 243 239 240 242 240 232 238 257 255 236 227 229 214 203 208 1 89 108 105 116 126 120 128 146 150 151 157 165 170 173 176 179 184 190 191 199
289 292 307 320 339 292 269 235 357 317 289 255 242 242 250 257 263 270 285 299 304 321 330 323 318 337 343 343 350 7 310 243 227 218 226 234 228 214 211 217 224 228 237 244 246 249 256 262 262 261 264 257 249 247 242 242 245 233 230 247 237 220 222 221 192 128 101 215 230 102 111 124 119 109 137 147 148 150 159 167 171 174 176 182 197 208 204 206
282 291 50 96 123 245 256 226 306 305 316 295 270 267 269 270 278 285 290 312 325 327 324 314 310 322 326 322 331 347 0 324 224 214 220 228 230 221 212 211 219 219 220 245 256 251 252 260 262 265 273 266 251 247 237 234 244 242 235 251 254 225 216 211 196 171 120 147 301 65 102 101 85 122 148 148 147 153 166 174 175 176 179 189 204 205 198 203
269 141 110 123 157 277 300 321 320 319 335 336 309 290 282 283 285 274 288 323 328 324 317 310 305 306 308 315 325 325 325 357 353 231 227 224 222 227 224 219 219 215 212 231 275 258 242 252 262 261 265 258 227 224 239 235 235 233 227 238 254 244 210 207 197 182 161 147 226 341 69 64 74 138 158 157 162 170 178 182 180 177 178 188 197 198 201 209
215 114 116 126 37 3 348 343 339 336 342 346 329 309 289 284 257 214 296 319 310 307 313 307 301 300 299 299 323 342 334 357 13 272 239 232 220 221 227 229 229 224 222 231 271 290 270 248 256 253 251 259 225 167 46 329 233 220 213 224 236 230 184 195 193 178 165 150 145 129 226 129 99 151 169 167 171 177 181 186 186 184 186 194 202 205 209 210
132 114 91 53 34 16 0 352 341 329 334 341 326 308 286 279 256 225 283 302 288 292 321 315 304 300 299 296 307 344 342 328 356 326 254 242 229 229 230 233 240 238 230 237 260 284 282 242 243 249 256 258 222 185 201 351 348 209 197 210 225 228 220 198 175 175 165 163 171 171 188 153 133 162 179 179 181 181 184 189 189 190 196 207 211 205 201 203
121 123 84 50 33 16 8 1 335 317 317 313 306 300 288 285 276 262 277 278 264 280 331 339 327 298 293 317 313 323 330 310 328 325 277 234 233 243 241 240 250 249 234 241 256 267 271 248 232 241 251 233 178 182 206 247 346 127 147 164 199 221 223 212 197 178 154 145 165 158 142 157 154 164 179 184 190 192 195 198 197 196 199 206 207 194 189 195
114 118 100 72 33 9 3 349 338 317 302 303 301 296 285 280 277 270 272 269 261 275 312 346 348 302 263 314 323 319 327 354 23 5 286 178 113 224 253 267 261 258 241 240 246 248 251 255 231 234 233 184 165 183 203 225 258 281 92 114 145 195 212 216 219 197 168 147 156 141 94 174 169 174 185 185 190 197 196 196 204 210 208 209 205 190 187 190
129 117 114 109 39 7 348 340 339 321 309 315 310 300 282 270 270 264 264 273 273 277 294 322 332 301 261 284 330 329 334 4 41 41 117 170 129 2 319 328 294 277 253 235 233 230 231 242 226 221 211 184 183 191 197 214 246 265 60 63 74 149 192 214 214 195 180 177 183 165 124 176 179 184 191 193 203 206 194 187 201 208 205 210 207 191 191 192
142 132 131 122 45 16 349 344 344 330 322 324 319 315 295 263 259 260 261 279 286 273 275 291 299 283 260 262 284 295 330 1 31 55 147 179 169 127 327 332 332 312 263 236 232 229 225 225 210 186 143 175 202 204 194 197 221 242 215 22 44 85 106 210 198 187 188 194 193 176 146 165 178 185 188 198 213 215 207 205 212 210 206 205 190 166 168 174
144 140 139 122 74 12 356 358 357 342 332 331 335 350 338 295 266 257 257 269 269 248 250 267 266 261 254 252 262 273 306 10 28 84 136 152 161 163 180 200 352 342 281 241 232 229 224 214 210 201 135 114 51 16 198 200 211 227 236 261 280 29 38 49 176 176 181 184 188 191 176 172 177 182 189 198 210 213 205 203 209 208 200 195 185 166 153 153
153 149 151 163 184 41 12 11 14 6 358 354 16 39 28 22 68 203 225 251 261 237 230 254 262 262 262 252 256 274 283 325 331 62 126 135 151 171 174 181 195 302 283 241 223 218 211 196 201 204 172 130 47 35 171 200 220 231 241 258 265 282 339 24 64 117 163 170 175 194 202 193 181 178 187 195 201 204 196 195 207 209 197 189 191 180 158 154
165 152 148 156 160 60 21 18 20 10 4 10 39 52 54 70 95 123 160 149 302 240 219 230 249 255 263 254 252 265 266 260 298 89 130 152 155 148 151 171 199 222 256 259 230 213 209 202 204 207 200 201 172 145 169 205 202 220 239 253 262 269 273 297 354 15 143 194 191 181 192 194 177 172 184 197 200 200 194 196 208 210 202 194 192 186 171 166
172 143 120 101 94 63 30 22 17 2 358 21 43 43 49 60 76 70 91 189 252 239 207 216 226 227 243 248 250 266 273 250 172 114 134 162 154 129 132 148 211 237 249 265 256 230 230 223 229 233 227 230 216 173 150 185 192 191 207 225 237 250 257 263 294 333 338 279 205 175 171 171 168 171 181 191 195 191 185 187 191 196 198 190 185 188 183 174
158 137 115 106 103 95 64 23 13 5 12 44 47 37 30 23 43 58 35 233 238 253 219 215 227 227 235 238 248 282 285 270 246 139 140 161 163 145 123 110 68 333 279 251 213 199 201 204 239 245 227 231 227 201 168 158 221 211 178 183 208 222 238 250 261 294 320 189 168 165 161 160 166 176 179 180 184 185 187 191 188 188 190 181 172 176 179 175
166 153 130 124 125 119 95 32 25 35 43 48 40 33 30 20 13 0 288 279 285 276 260 266 275 260 253 240 213 333 277 261 256 213 177 171 172 160 129 109 13 337 318 297 268 241 236 228 254 253 191 201 214 205 192 186 205 200 164 151 182 204 218 232 245 264 269 192 172 169 165 165 172 179 179 180 184 188 196 200 193 185 183 182 179 178 181 185
168 164 152 150 142 125 112 60 60 59 49 43 31 30 39 32 28 30 302 258 270 277 276 281 280 274 274 244 199 151 274 238 224 209 198 180 170 166 160 300 294 288 281 292 313 334 302 251 240 272 167 176 184 193 183 176 184 193 153 134 158 171 174 177 193 218 232 223 196 180 173 174 179 183 186 188 190 194 198 195 188 183 183 187 195 197 198 203